Weather in Toliara

Madagascar     23°22′10″S   43°43′06″E
temp.,
°C
wind,
m/s
gust,
m/s
humid.,
%
clouds,
%
prec.,
mm/h
press.,
hPa
HPBL,
m
25 february, thu
thu2500:00+24e238988 0.1 101077
03:00+23ene238944 0.1 100982
06:00+23ene22850 0.0 101042
09:00+30nne246130 0.0 1010458
12:00+33wnw45500 0.0 10091337
15:00+30w56667 3.6 1008851
18:00+28wnw367862 2.6 1008599
21:00+25nnw128834 5.1 101070
26 february, fri
fri2600:00+24ene229366 4.1 101035
03:00+23ne229271 5.6 100952
06:00+23ne129076 0.0 100931
09:00+29nnw236838 0.0 1010549
12:00+31w446315 0.4 1009908
15:00+30wsw446210 0.8 1008866
18:00+27sw35760 0.0 1008612
21:00+25sse24867 0.0 1010134
27 february, sat
sat2700:00+24se279091 0.1 1009283
03:00+24e388879 0.1 1008302
06:00+23ese239025 0.0 100897
09:00+27sse347441 0.0 1009477
12:00+31ssw445835 0.0 1009957
15:00+29ssw577220 1.6 1007583
18:00+27ssw497955 4.8 1008483
21:00+24ese4119277 7.0 1010492
28 february, sun
sun2800:00+24ese399468 0.0 1010393
03:00+23se269551 0.0 1008221
06:00+23se379478 0.0 1009234
09:00+28ese357589 0.0 1009532
12:00+34ssw225270 0.0 10081329
15:00+30ssw577470 4.9 1007489
18:00+27se1485100 9.5 100788
21:00+24e61189100 15.7 1010338
1 march, mon
mon100:00+24e3988100 0.5 1009284
03:00+24e3889100 0.5 1008259
06:00+24e388999 0.0 1010262
09:00+29e475990 0.1 1010441
12:00+34e23460 0.0 10101147
15:00+35se244220 0.0 10081692
18:00+29sw257430 0.1 1008175
21:00+26ene228064 0.1 101031